Location: Conover
(35.7170°N, 81.2250°W)
Time: 05:03:45
(UTC-05:00)

Daily predictions for brighter satellites

Satellite Brightness Start Highest point End
(mag) Time Altitude Azimuth Time Altitude Azimuth Time Altitude Azimuth
CZ-3 R/B 4.4 01:26:46 10° W 02:48:32 53° SE 02:57:17 10° ESE
Cosmos 2333 Rocket 3.9 04:39:22 26° SSE 04:39:22 26° SSE 04:41:43 10° SSE
Cosmos 1725 Rocket 4.3 04:39:47 10° S 04:45:54 62° E 04:52:05 10° NNE
Cosmos 2219 Rocket 4.2 04:56:21 16° S 04:56:21 16° S 04:57:23 10° S
OAO 2 Rocket 3.8 05:09:34 56° E 05:09:34 56° E 05:13:29 10° E
ISS -0.4 05:16:07 14° NE 05:16:07 14° NE 05:17:06 10° ENE
Cosmos 540 Rocket 3.4 05:17:12 80° SE 05:17:12 80° SE 05:22:02 10° SSE
Cosmos 2237 Rocket 2.5 05:22:48 50° SSW 05:22:48 50° SSW 05:27:16 10° S
SL-16 R/B 2.6 05:22:49 27° N 05:25:49 61° ENE 05:31:25 10° SSE
Aureole 2 Rocket 3.2 05:26:05 66° E 05:26:05 66° E 05:29:59 10° SSE
Cosmos 1743 Rocket 3.6 05:27:58 63° NNE 05:28:33 74° E 05:32:55 10° SSE
Cosmos 2297 Rocket 3.3 05:33:23 28° NNW 05:33:23 28° NNW 05:36:22 10° N
Cosmos 2233 Rocket 3.9 05:28:56 10° S 05:35:10 86° W 05:41:30 10° N
Cosmos 1842 Rocket 3.4 05:30:59 10° S 05:35:19 84° E 05:39:41 10° N
ATLAS 2A CENTAUR R/B 4.1 05:36:03 25° SSW 05:36:38 25° SSW 05:39:12 10° SE
COSMO-SKYMED 1 2.8 05:32:38 10° SSE 05:36:56 67° ENE 05:39:28 24° N
PSLV R/B 4.1 05:38:55 50° E 05:38:55 50° E 05:41:32 10° ENE
Cosmos 2227 Rocket 4.0 05:46:53 16° NNW 05:46:53 16° NNW 05:48:23 10° N
Cosmos 2151 4.0 05:40:17 10° N 05:44:22 46° E 05:48:27 10° SSE
Meteor 1-16 Rocket 4.2 05:42:09 10° S 05:47:36 78° E 05:52:57 10° NNE
Cosmos 1340 Rocket 4.4 05:45:54 10° NNE 05:49:30 34° ENE 05:53:07 10° SE
Cosmos 1271 Rocket 3.3 05:45:46 10° S 05:49:31 56° E 05:53:16 10° NNE
Meteor 1-28 Rocket 3.7 05:48:46 10° SSE 05:52:28 59° ENE 05:55:51 12° N
BREEZE-M DEB (TANK) 3.8 05:52:33 38° WSW 05:53:01 39° WSW 05:55:55 10° SSE
Cosmos 1500 Rocket 3.4 05:52:33 19° NNW 05:55:40 76° W 06:00:06 10° S
Ariane Rocket 3.0 05:53:48 10° NNE 05:58:56 82° ESE 06:04:02 10° SSW
SL-14 R/B 3.5 05:55:57 10° N 06:00:01 75° E 06:04:03 10° SSE
Cosmos 220 Rocket 4.4 06:01:45 39° WNW 06:01:52 40° WNW 06:06:02 10° N
Cosmos 2346 Rocket 4.3 05:57:28 10° NNW 06:03:34 68° W 06:09:33 10° S
Cosmos 1626 4.5 06:05:29 10° NNE 06:08:36 25° ENE 06:11:43 10° SE
Meteor 2-1 Rocket 4.3 06:06:02 10° S 06:11:35 80° E 06:17:18 10° N
DMSP B5D1-3 4.4 06:07:02 10° S 06:12:08 68° WSW 06:17:14 10° NNW
CZ-2C R/B 3.4 06:12:53 10° NNE 06:17:16 45° E 06:21:38 10° S
Cosmos 2333 Rocket 4.2 06:21:27 11° WSW 06:21:27 11° WSW 06:21:45 10° WSW
CZ-4 R/B 2.2 06:18:28 10° NNE 06:22:28 55° E 06:26:30 10° S
Tiangong 2 2.8 06:20:13 10° SSW 06:23:03 32° SE 06:25:53 10° E
SKYMED 2 4.3 06:21:13 10° SSW 06:25:05 32° W 06:28:08 15° NW
PAYLOAD A 3.9 06:20:21 10° NNE 06:25:24 88° ESE 06:30:13 10° SSW
CSL-04 Debris 4.1 06:20:01 10° N 06:25:31 81° WNW 06:30:58 10° SSW
Cosmos 1464 Rocket 4.0 06:19:15 10° S 06:25:36 77° W 06:31:55 10° N
Cosmos 968 Rocket 4.2 06:22:16 10° SW 06:26:51 30° WNW 06:31:28 10° N
CZ-3 R/B 4.4 06:21:34 12° W 06:28:22 15° WSW 06:33:47 10° SSW
Cosmos 1603 3.9 06:24:09 10° NNW 06:29:48 75° ENE 06:35:27 10° SSE
Cosmos 2263 Rocket 3.6 06:27:16 10° S 06:32:33 42° ESE 06:37:53 10° NE
GPS 2-05 Rocket1 2.6 06:31:03 20° W 06:33:08 85° S 06:36:30 10° E
YAOGAN 1 3.6 06:29:56 10° NNE 06:34:10 51° E 06:38:21 10° S
Meteor 2-12 Rocket 4.4 06:29:18 10° SSW 06:35:22 64° W 06:41:30 10° N
Cosmos 1908 4.3 06:32:36 10° SSE 06:36:16 47° E 06:39:57 10° NNE
Cosmos 773 Rocket 4.0 06:34:52 10° NNW 06:40:09 75° WSW 06:45:26 10° S
Coronas F rocket 3.4 06:39:09 10° NNE 06:41:14 25° E 06:43:18 10° SE
Cosmos 1666 Rocket 3.9 06:42:04 10° N 06:46:32 74° E 06:50:59 10° SSE
Cosmos 2221 3.0 06:43:46 10° SSW 06:47:48 37° W 06:51:49 10° N
ISS -3.1 06:48:48 13° WNW 06:51:36 53° SW 06:54:46 10° SSE
OAO 2 Rocket 3.5 06:48:32 11° W 06:53:15 64° SSW 06:58:09 10° ESE
CSL-04 Rocket 4.2 06:49:46 10° N 06:54:33 35° WNW 06:59:18 10° SW
APEX 4.4 06:51:23 10° S 06:55:34 48° ESE 06:58:54 10° NE
Cosmos 2058 3.9 06:54:50 10° NNW 06:58:20 27° W 07:01:50 10° SSW
NOSS 3-1 (A) 4.2 06:50:30 10° NNW 06:58:20 84° WSW 07:06:49 10° SSE
Genesis I 3.2 06:54:46 10° NW 06:58:41 71° WSW 07:02:33 10° SSE
Cosmos 1184 Rocket 2.7 06:57:36 10° NNW 07:00:54 71° W 07:04:11 10° S
SPOT 3 Rocket 3.6 06:57:17 10° NNE 07:02:31 85° WNW 07:07:44 10° SSW
ATLAS 2AS CENTAUR R/B 4.2 06:59:37 10° NNW 07:07:02 38° NE 07:13:57 10° ESE
Cosmos 1726 4.2 07:03:59 10° SSE 07:07:16 31° E 07:10:34 10° NNE
SL-16 R/B 3.8 07:06:10 10° WNW 07:09:19 15° W 07:12:29 10° SW
Gbstr 26 Del rocket 4.0 07:04:05 10° SW 07:09:29 80° SE 07:16:16 10° NE
SL-8 R/B 4.5 07:04:58 10° NW 07:09:35 46° NNE 07:14:11 10° ESE
DELTA 2 R/B (1) 3.6 07:04:07 10° WSW 07:09:40 76° NNW 07:15:15 10° ENE
MOS 1 4.3 07:06:34 10° N 07:12:15 71° WNW 07:17:55 10° SSW
